Weather History for Kansas City International, MO

Change the Weather History Date:

Tuesday, February 5, 2013

  Actual Average Record
Temperature  
Mean Temperature 39 °F 31 °F  
Max Temperature 57 °F 40 °F 67 °F (1963)
Min Temperature 20 °F 21 °F -14 °F (1982)
Degree Days  
Heating Degree Days 26 34  
Month to date heating degree days 167 174  
Since 1 July heating degree days 2994 3338  
Cooling Degree Days 0 0  
Month to date cooling degree days 0 0  
Year to date cooling degree days 0 0  
Moisture  
Dew Point 25 °F    
Average Humidity 62    
Maximum Humidity 92    
Minimum Humidity 32    
Precipitation  
Precipitation 0.00 in 0.05 in 1.05 in (2008)
Month to date precipitation 0.00 0.23  
Year to date precipitation 1.03 1.30  
Snow  
Snow 0.00 in 0.20 in 7.50 in (2004)
Month to date snowfall 0.0 1.0  
Since 1 July snowfall 4.7 11.8  
Snow Depth 0.00 in    
Sea Level Pressure  
Sea Level Pressure 30.00 in    
Wind  
Wind Speed 8 mph (WSW)    
Max Wind Speed 16 mph    
Max Gust Speed 22 mph    
Visibility 9 miles    
Events      
T = Trace of Precipitation, MM = Missing Value Source: NWS Daily Summary

Daily Weather History Graph

Daily Weather History Graph

Search for Another Location

Airport:

Trip Planner

Search our weather history database for the weather conditions in past years. The results will help you decide how hot, cold, wet, or windy it might be!

Date:

Astronomy

Feb. 05, 2013 Rise Set
Actual Time 7:21 AM CST 5:44 PM CST
Civil Twilight 6:53 AM CST 6:12 PM CST
Nautical Twilight 6:21 AM CST 6:44 PM CST
Astronomical Twilight 5:50 AM CST 7:15 PM CST
Moon 3:03 AM CST (2/5) 1:03 PM CST (2/5)
Length of Visible Light 11h 18m
Length of Day
10h 22m
Waning Crescent, 26% of the Moon is Illuminated
Feb 5
Waning Crescent
Feb 10
New
Feb 17
First Quarter
Feb 25
Full
Mar 4
Last Quarter

Hourly Weather History & Observations

Time (CST) Temp. Windchill Dew Point Humidity Pressure Visibility Wind Dir Wind Speed Gust Speed Precip Events Conditions
12:53 AM 21.9 °F 13.4 °F 18.0 °F 85% 29.96 in 8.0 mi SSE 6.9 mph - N/A   Clear
1:53 AM 21.0 °F 12.4 °F 18.0 °F 88% 29.95 in 8.0 mi South 6.9 mph - N/A   Clear
2:53 AM 23.0 °F 14.7 °F 19.9 °F 88% 29.93 in 8.0 mi South 6.9 mph - N/A   Clear
3:53 AM 21.9 °F 11.7 °F 19.0 °F 89% 29.93 in 7.0 mi South 9.2 mph - N/A   Clear
4:53 AM 25.0 °F 15.5 °F 21.0 °F 85% 29.92 in 7.0 mi SSW 9.2 mph - N/A   Scattered Clouds
5:53 AM 25.0 °F 16.3 °F 21.9 °F 88% 29.92 in 7.0 mi SW 8.1 mph - N/A   Scattered Clouds
6:53 AM 25.0 °F 18.1 °F 21.9 °F 88% 29.96 in 6.0 mi West 5.8 mph - N/A   Scattered Clouds
7:53 AM 25.0 °F 14.8 °F 21.9 °F 88% 29.94 in 5.0 mi SSW 10.4 mph - N/A   Partly Cloudy
8:53 AM 30.0 °F 20.5 °F 25.0 °F 82% 29.97 in 7.0 mi SW 11.5 mph - N/A   Scattered Clouds
9:53 AM 36.0 °F 28.0 °F 28.0 °F 73% 29.97 in 8.0 mi WSW 11.5 mph - N/A   Partly Cloudy
10:53 AM 42.1 °F 36.1 °F 28.9 °F 60% 29.99 in 10.0 mi West 10.4 mph - N/A   Clear
11:53 AM 48.9 °F - 30.0 °F 48% 29.99 in 9.0 mi West 8.1 mph - N/A   Partly Cloudy
12:53 PM 52.0 °F - 30.0 °F 43% 29.99 in 10.0 mi NW 9.2 mph - N/A   Clear
1:53 PM 55.9 °F - 30.0 °F 37% 29.99 in 10.0 mi NNW 12.7 mph - N/A   Clear
2:53 PM 55.9 °F - 28.9 °F 36% 29.99 in 10.0 mi NW 11.5 mph - N/A   Clear
3:53 PM 55.0 °F - 26.1 °F 33% 30.02 in 10.0 mi NNW 10.4 mph - N/A   Clear
4:53 PM 53.1 °F - 25.0 °F 34% 30.02 in 10.0 mi NNW 9.2 mph - N/A   Clear
5:53 PM 48.0 °F - 24.1 °F 39% 30.04 in 10.0 mi NNW 5.8 mph - N/A   Clear
6:53 PM 42.1 °F 37.1 °F 25.0 °F 51% 30.05 in 10.0 mi North 8.1 mph - N/A   Partly Cloudy
7:53 PM 42.1 °F 39.2 °F 26.1 °F 53% 30.08 in 10.0 mi North 4.6 mph - N/A   Clear
8:53 PM 39.0 °F 36.8 °F 25.0 °F 57% 30.10 in 10.0 mi SE 3.5 mph - N/A   Clear
9:53 PM 39.0 °F 36.8 °F 25.0 °F 57% 30.10 in 10.0 mi ESE 3.5 mph - N/A   Clear
10:53 PM 41.0 °F 37.1 °F 27.0 °F 57% 30.11 in 10.0 mi East 5.8 mph - N/A   Clear
11:53 PM 39.9 °F 34.5 °F 27.0 °F 60% 30.11 in 10.0 mi East 8.1 mph - N/A   Clear